| time (UTC) | temp F | wind direction | speed MPH | gust MPH | rain 1hr in | rain 24hr in | rain mn in | humidity % | barometer mb |
| 20260504214556 | 54 | 45 | 14.0 | 27.0 | 0.00 | 0.00 | 0.00 | 28 | 1011.4 |
| 20260504213104 | 55 | 19 | 6.0 | 23.0 | 0.00 | 0.00 | 0.00 | 29 | 1011.5 |
| 20260504211554 | 55 | 324 | 6.0 | 18.0 | 0.00 | 0.00 | 0.00 | 30 | 1011.7 |
| 20260504210058 | 55 | 360 | 9.0 | 26.0 | 0.00 | 0.00 | 0.00 | 30 | 1011.7 |
| 20260504204554 | 53 | 354 | 5.0 | 24.0 | 0.00 | 0.00 | 0.00 | 34 | 1012.0 |
| 20260504203106 | 51 | 20 | 11.0 | 27.0 | 0.00 | 0.00 | 0.00 | 35 | 1012.0 |
| 20260504201555 | 53 | 10 | 12.0 | 27.0 | 0.00 | 0.00 | 0.00 | 33 | 1011.8 |
| 20260504200049 | 53 | 29 | 6.0 | 23.0 | 0.00 | 0.00 | 0.00 | 34 | 1011.7 |
| 20260504194546 | 54 | 341 | 7.0 | 22.0 | 0.00 | 0.00 | 0.00 | 34 | 1011.6 |
| 20260504193046 | 53 | 5 | 8.0 | 21.0 | 0.00 | 0.00 | 0.00 | 35 | 1011.6 |
| 20260504191548 | 53 | 18 | 9.0 | 25.0 | 0.00 | 0.00 | 0.00 | 34 | 1011.5 |
| 20260504190044 | 53 | 360 | 6.0 | 23.0 | 0.00 | 0.00 | 0.00 | 38 | 1011.5 |
| 20260504184537 | 52 | 327 | 8.0 | 25.0 | 0.00 | 0.00 | 0.00 | 39 | 1011.5 |
| 20260504183037 | 52 | 360 | 6.0 | 18.0 | 0.00 | 0.00 | 0.00 | 39 | 1011.6 |
| 20260504181543 | 51 | 31 | 8.0 | 23.0 | 0.00 | 0.00 | 0.00 | 41 | 1011.5 |
| 20260504180035 | 51 | 20 | 11.0 | 21.0 | 0.00 | 0.00 | 0.00 | 39 | 1011.6 |
| 20260504174533 | 52 | 14 | 5.0 | 23.0 | 0.00 | 0.00 | 0.00 | 40 | 1011.5 |
| 20260504173032 | 51 | 356 | 6.0 | 20.0 | 0.00 | 0.00 | 0.00 | 39 | 1011.3 |
| 20260504171530 | 51 | 25 | 10.0 | 21.0 | 0.00 | 0.00 | 0.00 | 40 | 1011.2 |
| 20260504081525 | 44 | 28 | 7.0 | 22.0 | 0.00 | 0.00 | 0.00 | 66 | 1009.6 |
| 20260504044601 | 53 | 24 | 6.0 | 15.0 | 0.00 | 0.00 | 0.00 | 40 | 1006.0 |
| 20260504043056 | 54 | 21 | 7.0 | 16.0 | 0.00 | 0.00 | 0.00 | 42 | 1005.7 |
| 20260504041554 | 55 | 27 | 6.0 | 15.0 | 0.00 | 0.00 | 0.00 | 43 | 1005.0 |
| 20260504040104 | 54 | 25 | 2.0 | 10.0 | 0.00 | 0.00 | 0.00 | 43 | 1004.4 |
| 20260504034611 | 54 | 17 | 0.0 | 3.0 | 0.00 | 0.00 | 0.00 | 42 | 1003.7 |
| 20260504033050 | 54 | 18 | 0.0 | 3.0 | 0.00 | 0.00 | 0.00 | 42 | 1003.2 |
| 20260504031550 | 55 | 18 | 0.0 | 2.0 | 0.00 | 0.00 | 0.00 | 42 | 1003.1 |
| 20260504030113 | 56 | 18 | 0.0 | 5.0 | 0.00 | 0.00 | 0.00 | 40 | 1003.0 |
| 20260504024555 | 57 | 17 | 3.0 | 6.0 | 0.00 | 0.00 | 0.00 | 38 | 1002.8 |
| 20260504023049 | 59 | 35 | 3.0 | 7.0 | 0.00 | 0.00 | 0.00 | 36 | 1002.7 |
| 20260504021551 | 61 | 41 | 4.0 | 11.0 | 0.00 | 0.00 | 0.00 | 34 | 1002.5 |
| 20260504020047 | 64 | 41 | 5.0 | 10.0 | 0.00 | 0.00 | 0.00 | 31 | 1002.4 |
| 20260504014550 | 65 | 38 | 3.0 | 13.0 | 0.00 | 0.00 | 0.00 | 29 | 1002.3 |
| 20260504013052 | 67 | 22 | 7.0 | 17.0 | 0.00 | 0.00 | 0.00 | 24 | 1002.2 |
| 20260504011546 | 70 | 28 | 8.0 | 13.0 | 0.00 | 0.00 | 0.00 | 24 | 1002.2 |
| 20260504010044 | 71 | 24 | 1.0 | 10.0 | 0.00 | 0.00 | 0.00 | 21 | 1002.1 |
| 20260504004544 | 72 | 350 | 2.0 | 10.0 | 0.00 | 0.00 | 0.00 | 21 | 1002.3 |
| 20260504003043 | 71 | 355 | 2.0 | 11.0 | 0.00 | 0.00 | 0.00 | 20 | 1002.4 |
| 20260504001557 | 72 | 360 | 3.0 | 12.0 | 0.00 | 0.00 | 0.00 | 19 | 1002.6 |
| 20260504000039 | 72 | 20 | 5.0 | 13.0 | 0.00 | 0.00 | 0.00 | 19 | 1002.8 |
| 20260503234538 | 72 | 360 | 6.0 | 13.0 | 0.00 | 0.00 | 0.00 | 20 | 1002.9 |
| 20260503233039 | 72 | 360 | 3.0 | 15.0 | 0.00 | 0.00 | 0.00 | 21 | 1002.9 |
| 20260503231537 | 72 | 323 | 5.0 | 16.0 | 0.00 | 0.00 | 0.00 | 22 | 1003.0 |
| 20260503230036 | 72 | 333 | 2.0 | 19.0 | 0.00 | 0.00 | 0.00 | 21 | 1003.1 |
| 20260503224534 | 72 | 318 | 6.0 | 16.0 | 0.00 | 0.00 | 0.00 | 20 | 1003.4 |
| 20260503223032 | 72 | 331 | 4.0 | 19.0 | 0.00 | 0.00 | 0.00 | 21 | 1003.5 |
| 20260503221531 | 72 | 328 | 6.0 | 18.0 | 0.00 | 0.00 | 0.00 | 21 | 1003.6 |
| 20260503220030 | 73 | 332 | 2.0 | 20.0 | 0.00 | 0.00 | 0.00 | 21 | 1003.8 |